• In Austria
  • List of Countries
  • For 7 days
  • Water Temperature
  • Satellite Maps
  • Weather Map
  • News
  • Weather Widgets
  • user-avatar
    Login

    Hourly Weather Solden

    Today, 21 May, Monday

    Time Temperature Precipitation Wind Pressure Humidity
    00:00 -1°C° 0 mm 2 mps 582 mmHg 94%
    01:00 -1°C° 0 mm 2 mps 581 mmHg 94%
    02:00 -1°C° 0 mm 2 mps 581 mmHg 94%
    03:00 -1°C° 0 mm 2 mps 581 mmHg 94%
    04:00 -2°C° 0 mm 2 mps 581 mmHg 94%
    05:00 +1°C° 0 mm 2 mps 581 mmHg 90%
    06:00 +3°C° 0 mm 1 mps 582 mmHg 86%
    07:00 +4°C° 0 mm 1 mps 582 mmHg 83%
    08:00 +6°C° 0 mm 1 mps 583 mmHg 76%
    09:00 +8°C° 0 mm 1 mps 583 mmHg 69%
    10:00 +9°C° 0 mm 1 mps 584 mmHg 63%
    11:00 +10°C° 0.2 mm 1 mps 584 mmHg 61%
    12:00 +10°C° 0.2 mm 1 mps 584 mmHg 60%
    13:00 +10°C° 0.2 mm 2 mps 584 mmHg 59%
    14:00 +10°C° 0.4 mm 2 mps 584 mmHg 61%
    15:00 +9°C° 0.4 mm 2 mps 583 mmHg 62%
    16:00 +9°C° 0.4 mm 2 mps 583 mmHg 64%
    17:00 +9°C° 0.4 mm 1 mps 582 mmHg 71%
    18:00 +8°C° 0.4 mm 1 mps 582 mmHg 77%
    19:00 +7°C° 0.4 mm 1 mps 581 mmHg 83%
    20:00 +5°C° 0.1 mm 1 mps 581 mmHg 87%
    21:00 +4°C° 0.1 mm 1 mps 581 mmHg 90%
    22:00 +3°C° 0.1 mm 1 mps 580 mmHg 94%
    23:00 +3°C° 0 mm 1 mps 580 mmHg 94%

    Tomorrow, 22 May, Tuesday

    Time Temperature Precipitation Wind Pressure Humidity
    00:00 +3°C° 0 mm 1 mps 580 mmHg 94%
    01:00 +2°C° 0 mm 1 mps 580 mmHg 95%
    02:00 +2°C° 0 mm 1 mps 580 mmHg 94%
    03:00 +2°C° 0 mm 1 mps 580 mmHg 94%
    04:00 +2°C° 0 mm 1 mps 579 mmHg 94%
    05:00 +3°C° 0 mm 1 mps 580 mmHg 89%
    06:00 +4°C° 0 mm 1 mps 581 mmHg 85%
    07:00 +5°C° 0 mm 1 mps 581 mmHg 81%
    08:00 +7°C° 0 mm 1 mps 582 mmHg 73%
    09:00 +9°C° 0 mm 1 mps 583 mmHg 66%
    10:00 +10°C° 0 mm 1 mps 584 mmHg 59%
    11:00 +11°C° 0.3 mm 1 mps 584 mmHg 58%
    12:00 +11°C° 0.3 mm 1 mps 584 mmHg 57%
    13:00 +11°C° 0.3 mm 1 mps 584 mmHg 56%
    14:00 +10°C° 0.4 mm 2 mps 584 mmHg 58%
    15:00 +10°C° 0.4 mm 2 mps 584 mmHg 61%
    16:00 +10°C° 0.4 mm 2 mps 584 mmHg 63%
    17:00 +9°C° 0.3 mm 1 mps 584 mmHg 70%
    18:00 +8°C° 0.3 mm 1 mps 583 mmHg 77%
    19:00 +7°C° 0.3 mm 1 mps 583 mmHg 84%
    20:00 +6°C° 0.1 mm 1 mps 582 mmHg 88%
    21:00 +5°C° 0.1 mm 1 mps 582 mmHg 91%
    22:00 +4°C° 0.1 mm 1 mps 582 mmHg 95%
    23:00 +3°C° 0 mm 1 mps 582 mmHg 95%

    Day after tomorrow, 23 May, Wednesday

    Time Temperature Precipitation Wind Pressure Humidity
    00:00 +3°C° 0 mm 1 mps 582 mmHg 95%
    01:00 +3°C° 0 mm 1 mps 582 mmHg 95%
    02:00 +3°C° 0 mm 1 mps 582 mmHg 94%
    03:00 +2°C° 0 mm 1 mps 582 mmHg 94%
    04:00 +2°C° 0 mm 1 mps 582 mmHg 94%
    05:00 +4°C° 0.1 mm 1 mps 583 mmHg 89%
    06:00 +4°C° 0.1 mm 0 mps 584 mmHg 84%
    07:00 +6°C° 0.1 mm 0 mps 585 mmHg 79%
    08:00 +8°C° 0.2 mm 0 mps 585 mmHg 72%
    09:00 +11°C° 0.2 mm 1 mps 586 mmHg 65%
    10:00 +12°C° 0.2 mm 1 mps 587 mmHg 58%
    11:00 +13°C° 0.8 mm 1 mps 587 mmHg 58%
    12:00 +13°C° 0.8 mm 1 mps 587 mmHg 57%
    13:00 +13°C° 0.8 mm 2 mps 587 mmHg 57%
    14:00 +13°C° 1.3 mm 2 mps 587 mmHg 61%
    15:00 +12°C° 1.3 mm 2 mps 586 mmHg 66%
    16:00 +12°C° 1.3 mm 2 mps 586 mmHg 70%
    17:00 +11°C° 0.9 mm 1 mps 586 mmHg 76%
    18:00 +9°C° 0.9 mm 1 mps 585 mmHg 82%
    19:00 +8°C° 0.9 mm 1 mps 585 mmHg 88%
    20:00 +7°C° 0.3 mm 1 mps 585 mmHg 90%
    21:00 +6°C° 0.3 mm 1 mps 584 mmHg 93%
    22:00 +4°C° 0.3 mm 0 mps 584 mmHg 95%
    23:00 +4°C° 0 mm 1 mps 584 mmHg 95%

    24 May, Thursday

    Time Temperature Precipitation Wind Pressure Humidity
    00:00 +4°C° 0 mm 1 mps 584 mmHg 95%
    01:00 +4°C° 0 mm 1 mps 583 mmHg 95%
    02:00 +4°C° 0 mm 1 mps 583 mmHg 95%
    03:00 +3°C° 0 mm 1 mps 583 mmHg 94%
    04:00 +3°C° 0 mm 1 mps 583 mmHg 94%
    05:00 +5°C° 0 mm 1 mps 584 mmHg 90%
    06:00 +5°C° 0 mm 0 mps 585 mmHg 85%
    07:00 +7°C° 0 mm 0 mps 585 mmHg 81%
    08:00 +9°C° 0 mm 0 mps 586 mmHg 71%
    09:00 +12°C° 0 mm 1 mps 587 mmHg 62%
    10:00 +14°C° 0 mm 1 mps 588 mmHg 53%
    11:00 +14°C° 0.3 mm 1 mps 588 mmHg 50%
    12:00 +15°C° 0.3 mm 2 mps 588 mmHg 48%
    13:00 +15°C° 0.3 mm 2 mps 588 mmHg 46%
    14:00 +15°C° 0.7 mm 2 mps 587 mmHg 50%
    15:00 +14°C° 0.7 mm 2 mps 587 mmHg 54%
    16:00 +14°C° 0.7 mm 2 mps 587 mmHg 57%
    17:00 +12°C° 0.7 mm 1 mps 586 mmHg 65%
    18:00 +11°C° 0.7 mm 1 mps 586 mmHg 73%
    19:00 +10°C° 0.7 mm 1 mps 585 mmHg 81%
    20:00 +8°C° 0.3 mm 1 mps 585 mmHg 84%
    21:00 +7°C° 0.3 mm 1 mps 584 mmHg 87%
    22:00 +6°C° 0.3 mm 1 mps 584 mmHg 90%
    23:00 +6°C° 0 mm 1 mps 584 mmHg 89%

    25 May, Friday

    Time Temperature Precipitation Wind Pressure Humidity
    00:00 +5°C° 0 mm 1 mps 584 mmHg 89%
    01:00 +5°C° 0 mm 1 mps 584 mmHg 89%
    02:00 +5°C° 0 mm 1 mps 583 mmHg 88%
    03:00 +4°C° 0 mm 1 mps 583 mmHg 88%
    04:00 +4°C° 0 mm 1 mps 583 mmHg 87%
    05:00 +6°C° 0 mm 1 mps 584 mmHg 82%
    06:00 +7°C° 0 mm 1 mps 585 mmHg 77%
    07:00 +9°C° 0 mm 1 mps 586 mmHg 71%
    08:00 +11°C° 0 mm 1 mps 587 mmHg 64%
    09:00 +13°C° 0 mm 1 mps 587 mmHg 56%
    10:00 +15°C° 0 mm 1 mps 588 mmHg 48%
    11:00 +15°C° 0.2 mm 1 mps 588 mmHg 48%
    12:00 +16°C° 0.2 mm 1 mps 588 mmHg 48%
    13:00 +16°C° 0.2 mm 1 mps 588 mmHg 47%
    14:00 +16°C° 0.7 mm 1 mps 588 mmHg 50%
    15:00 +15°C° 0.7 mm 1 mps 588 mmHg 53%
    16:00 +15°C° 0.7 mm 2 mps 588 mmHg 56%
    17:00 +14°C° 0.8 mm 1 mps 587 mmHg 63%
    18:00 +12°C° 0.8 mm 1 mps 586 mmHg 71%
    19:00 +11°C° 0.8 mm 1 mps 586 mmHg 79%
    20:00 +10°C° 0.7 mm 1 mps 586 mmHg 82%
    21:00 +9°C° 0.7 mm 1 mps 585 mmHg 85%
    22:00 +8°C° 0.7 mm 1 mps 585 mmHg 87%
    23:00 +7°C° 0.3 mm 1 mps 585 mmHg 88%

    26 May, Saturday

    Time Temperature Precipitation Wind Pressure Humidity
    00:00 +7°C° 0.3 mm 1 mps 585 mmHg 89%
    01:00 +6°C° 0.3 mm 1 mps 585 mmHg 90%
    02:00 +6°C° 0.1 mm 1 mps 584 mmHg 90%
    03:00 +5°C° 0.1 mm 1 mps 584 mmHg 89%
    04:00 +5°C° 0.1 mm 1 mps 584 mmHg 89%
    05:00 +7°C° 0 mm 1 mps 585 mmHg 84%
    06:00 +9°C° 0 mm 1 mps 586 mmHg 78%
    07:00 +10°C° 0 mm 0 mps 587 mmHg 72%
    08:00 +12°C° 0.2 mm 1 mps 588 mmHg 65%
    09:00 +14°C° 0.2 mm 1 mps 589 mmHg 58%
    10:00 +16°C° 0.2 mm 1 mps 589 mmHg 51%
    11:00 +16°C° 0.7 mm 1 mps 589 mmHg 50%
    12:00 +18°C° 0.7 mm 1 mps 590 mmHg 49%
    13:00 +18°C° 0.7 mm 1 mps 590 mmHg 48%
    14:00 +18°C° 1 mm 1 mps 590 mmHg 50%
    15:00 +18°C° 1 mm 1 mps 589 mmHg 51%
    16:00 +16°C° 1 mm 1 mps 589 mmHg 53%
    17:00 +15°C° 0.7 mm 1 mps 589 mmHg 60%
    18:00 +14°C° 0.7 mm 1 mps 588 mmHg 67%
    19:00 +12°C° 0.7 mm 1 mps 588 mmHg 75%
    20:00 +11°C° 0.5 mm 1 mps 587 mmHg 78%
    21:00 +10°C° 0.5 mm 1 mps 587 mmHg 80%
    22:00 +8°C° 0.5 mm 0 mps 587 mmHg 83%
    23:00 +8°C° 0.1 mm 1 mps 587 mmHg 83%
    Show more